Location: Newark
(39.6867°N, 100.6772°W)
Time: 13:32:31
(UTC+00:00)

Explorer 11/Cluster Stage 4 - Pass Details

Date: 29 October 2019
Orbit: 467 x 1259 km, 28.8° (Epoch: 14 November)

Event Time Altitude Azimuth Distance (km) Brightness Sun altitude
Rises 10:14:20 0° 210° (SSW) 3,653 - -33.8°
Reaches altitude 10° 10:19:32 10° 176° (S) 2,463 - -32.8°
Maximum altitude 10:20:58 11° 162° (SSE) 2,331 - -32.5°
Exits shadow 10:21:11 11° 160° (SSE) 2,322 9.1 -32.5°
Drops below altitude 10° 10:22:20 10° 147° (SSE) 2,326 9.2 -32.3°
Sets 10:26:40 0° 111° (ESE) 3,028 10.4 -31.5°
